• Processing (Info)

  • MPEC 2016-K12 : 2014 FX61

    The following Minor Planet Electronic Circular may be linked-to from your own Web pages, but must not otherwise be redistributed electronically.

    A form allowing access to any MPEC is at the bottom of this page.


    Read MPEC 2016-K11 Read MPEC 2016-K13


    M.P.E.C. 2016-K12                                Issued 2016 May 19, 03:43 UT
    
         The Minor Planet Electronic Circulars contain information on unusual
             minor planets and routine data on comets.  They are published
        on behalf of Division F of the International Astronomical Union by the
              Minor Planet Center, Smithsonian Astrophysical Observatory,
                              Cambridge, MA 02138, U.S.A.
    
                 Prepared using the Tamkin Foundation Computer Network
    
                                  MPC@CFA.HARVARD.EDU
                URL https://www.minorplanetcenter.net/    ISSN 1523-6714
    
                                       2014 FX61
    
    Additional Observations:
         K14F61X DC2016 04 16.48285 12 47 45.91 -03 37 30.8          23.6 RtEK012568
         K14F61X DC2016 04 16.50135 12 47 45.82 -03 37 30.2          23.3 RtEK012568
         K14F61X DC2016 04 16.51891 12 47 45.75 -03 37 29.5          23.5 RtEK012568
         K14F61X DC2016 04 16.53631 12 47 45.67 -03 37 29.0          23.3 RtEK012568
         K14F61X DC2016 05 12.38288 12 45 58.77 -03 23 51.7          23.4 RtEK012568
         K14F61X DC2016 05 12.39580 12 45 58.74 -03 23 51.6          23.5 RtEK012568
         K14F61X DC2016 05 12.44118 12 45 58.56 -03 23 50.2          23.5 RtEK012568
         K14F61X DC2016 05 12.45069 12 45 58.52 -03 23 49.9          23.7 RtEK012568
    
    Observer details:
    568 Mauna Kea.  Observer A. N. Heinze.  2.24-m University of Hawaii reflector.
    
    Orbital elements:
    2014 FX61
    Epoch 2016 July 31.0 TT = JDT 2457600.5                 MPC
    M 331.01907              (2000.0)            P               Q
    n   0.00346039     Peri.   43.10732     -0.61713057     +0.78461178
    a  43.2898729      Node   189.34467     -0.78398620     -0.61957078
    e   0.1509776      Incl.   21.47698     -0.06719745     +0.02272445
    P 285              H    7.8           G   0.15           U   5
    Residuals in seconds of arc
    140330 W84  0.1-  0.1+    140331 W84  0.1+  0.2-    140408 W84  0.0   0.0
    140330 W84  0.0   0.1+    140331 W84  0.2-  0.0     140408 W84  0.3-  0.2-
    140330 W84  0.1-  0.0     140331 W84  0.1-  0.0     140615 695  0.2-  0.1+
    140330 W84  0.2-  0.0     140331 W84  0.0   0.2+    140616 695  0.1-  0.2+
    140330 W84  0.0   0.1+    140331 W84  0.0   0.0     140616 695  0.0   0.3+
    140330 W84  0.1+  0.1+    140331 W84  0.0   0.0     160416 568  0.1-  0.1+
    140330 W84  0.1+  0.1-    140331 W84  0.0   0.1-    160416 568  0.1-  0.0
    140330 W84  0.1+  0.0     140331 W84  0.2-  0.2+    160416 568  0.1+  0.1+
    140330 W84  0.1-  0.1+    140331 W84  0.1+  0.0     160416 568  0.1+  0.0
    140330 W84  0.1+  0.1+    140331 W84  0.0   0.1-    160512 568  0.0   0.0
    140330 W84  0.1-  0.1+    140331 W84  0.0   0.1-    160512 568  0.2+  0.2-
    140330 W84  0.2+  0.1-    140331 W84  0.1+  0.0     160512 568  0.0   0.0
    140330 W84  0.2-  0.0     140407 W84  0.3+  0.1-    160512 568  0.1-  0.0
    140330 W84  0.2+  0.0     140407 W84  0.3+  0.4-
    
    Ephemeris:
    2014 FX61                a,e,i = 43.29, 0.15, 21                 q = 36.754
    Date    TT    R. A. (2000) Decl.     Delta      r     Elong.  Phase     V
    2016 04 19    12 47 34.3 -03 36 02  36.9219 37.8842   163.1     0.4    23.6
    ...
    2016 05 04    12 46 29.9 -03 27 51  37.0190 37.8804   148.3     0.8    23.7
    ...
    2016 05 12    12 46 00.1 -03 24 02  37.0945 37.8784   140.4     1.0    23.7
    ...
    2016 05 18    12 45 40.4 -03 21 28  37.1607 37.8769   134.5     1.1    23.7
    2016 05 19    12 45 37.4 -03 21 04  37.1725 37.8766   133.6     1.1    23.7
    2016 05 20    12 45 34.4 -03 20 41  37.1844 37.8764   132.6     1.1    23.7
    ...
    2016 05 26    12 45 18.3 -03 18 31  37.2602 37.8749   126.7     1.2    23.7
    ...
    2016 06 03    12 45 01.2 -03 16 07  37.3709 37.8729   119.0     1.3    23.7
    ...
    2016 06 18    12 44 44.2 -03 13 19  37.6008 37.8691   104.6     1.5    23.8
    
    A. U. Tomatic                (C) Copyright 2016 MPC           M.P.E.C. 2016-K12
    

    Read MPEC 2016-K11 Read MPEC 2016-K13


    MPEC number:

    Enter an MPEC number in one of the following forms:

    • 1997-B01 (the full form)
    • J97B01 (the packed version of the full form)
    • B01 (the abbreviated form)